SL-14 DEB, 45300

Orbit data source: Space-Track

SL-14 DEB, 45300 is space debris in LEO originally from a launch on Thu, 15 Aug 1991 UTC launched from the Plesetsk Missile And Space Complex (PKMTR). Debris objects in space refer to the collection of defunct objects orbiting the Earth. Examples of debris include non-operational satellites, rocket bodies, and fragments generated from explosions, collisions, or faulty payload assembly.

Loading next visibility...
Identifier
45300, 1991-056AN
Orbit
LEO
Last TLE update
18 hours ago
Origin
Manufacturer
Unknown
Mission
Spacecraft
Bus & Motor
Unknown
Mass
Unknown
Launch date (UTC)
1991-08-15 (34 years ago)
Launch vehicle
Unknown
Launch site
Plesetsk Missile And Space Complex (PKMTR)
Object type
Payload
Rocket body
Debris
Shape & HBR
Unknown
Radar Cross Section
Small (<0.1 m²)

Expand to show TLE details & history

TLE from 18 hours ago
0 SL-14 DEB
1 45300U 91056AN  25128.47410039  .00000534  00000-0  18242-2 0  9990
2 45300  82.5522 121.3735 0127704   3.0991 357.0880 12.94027206245468
Epoch: 2025-05-08T11:22Z
Definitive object data (Epoch: 2025-05-08T11:22:42.273Z)
Latitude
-0.00005°
Longitude
84.15328°
Altitude
1,190.6 km
Speed
7.305 km/s
True Right ascension
08h 05m 29s
True Declination
0° 00' 00"
Sunlit
Object was in daylight at TLE epoch
Visualization TLE readout
Latitude
-55.65549°
Longitude
72.66328°
Altitude
1,253.538 km
Speed
7.253 km/s
Apparent Right ascension
04h 20m 47s
Apparent Declination
-56° 15' 20"
Sunlit
Object is in daylight
Visualization observer readout
Local Sidereal Time
13:47:44
Azimuth
223.865° SW
Elevation
-60.238°
Doppler factor
1
Orbital elements
Apogee altitude
1,380.692 km
Perigee altitude
1,185.024 km
Semi-major axis
7,660.995 km
Eccentricity
0.0127704
Inclination
82.5522°
RAAN
121.3735°
Arg. of periapsis
3.0991°
True anomaly
357.01245°
Mean anomaly
357.088°
Eccentric anomaly
357.05035°
Mean motion
3.2368 °/min
BSTAR
0.0018242
Orbital period
111.22 mins
Loading maneuver chart data...
Loading SW <> Apogee altitude chart data...
Loading historical data...
Loading historical data...
Loading historical data...
Loading historical data...
Loading historical data...
Loading historical data...
Loading historical data...

SL-14 DEB Visibility forecast

Observer location: undefined°, undefined°

Span
Click to sort rows by Start time (UTC) header in descending order
Start Az.
Max El. time (UTC)
Max El. Az.
Max El.
End time (UTC)
End Az.
14 mins2025-05-09 10:14:02.225Z10.629° NNE2025-05-09 10:21:02.225Z76.639° E29.787°2025-05-09 10:28:02.225Z136.084° SSE
13 mins2025-05-09 12:07:02.225Z336.529° NNW2025-05-09 12:13:02.225Z271.527° WNW36.445°2025-05-09 12:20:02.225Z202.301° SSW
9 mins2025-05-09 22:46:02.225Z124.011° SE2025-05-09 22:50:02.225Z85.561° E21.475°2025-05-09 22:55:02.225Z38.289° NE
13 mins2025-05-10 00:36:02.225Z204.69° SW2025-05-10 00:42:02.225Z288.786° WNW40.862°2025-05-10 00:49:02.225Z0.524° NNE
|